Location: McFarlands Corners
(41.4117°N, 81.3382°W)
Time: 02:01:18
(UTC+00:00)

BlueWalker 3 - Pass Details

Date: 29 January 2026
Orbit: 450 x 461 km, 53.2° (Epoch: 7 February)

Event Time Altitude Azimuth Distance (km) Brightness Sun altitude
Rises 00:19:39 0° 299° (WNW) 2,457 6.3 -19.4°
Reaches altitude 10° 00:22:52 10° 331° (NNW) 1,584 4.7 -20.0°
Maximum altitude 00:24:27 12° 357° (N) 1,442 4.2 -20.3°
Enters shadow 00:24:31 12° 358° (N) 1,442 4.2 -20.3°
